Cedar Rapids, IA

12:07 PM CST on November 15, 2019 (GMT -0600)
The Eastern Iowa Airport

Weather History for KCID - September, 2019

Change the Weather History Date:

Saturday, September 7, 2019

  Actual Average Record
Temperature  
Mean Temperature 65 °F 66 °F  
Max Temperature 78 °F 78 °F 100 °F (1922)
Min Temperature 51 °F 55 °F 38 °F (1986)
Degree Days  
Heating Degree Days 0 2  
Month to date heating degree days 6 12  
Since 1 July heating degree days 14 31  
Cooling Degree Days 0 4  
Month to date cooling degree days 13 29  
Year to date cooling degree days 665 697  
Growing Degree Days 14 (Base 50)    
Moisture  
Dew Point 59 °F    
Average Humidity 80    
Maximum Humidity 100    
Minimum Humidity 60    
Precipitation  
Precipitation 0.32 in 0.11 in 1.93 in (1917)
Month to date precipitation 0.33 0.81  
Year to date precipitation 28.18 26.11  
Sea Level Pressure  
Sea Level Pressure 30.06 in    
Wind  
Wind Speed 5 mph (West)    
Max Wind Speed 15 mph    
Max Gust Speed 19 mph    
Visibility 9 miles    
Events Rain    
T = Trace of Precipitation, MM = Missing Value Source: NWS Daily Summary

Daily Weather History Graph

Daily Weather History Graph

Search for Another Location

Airport or City:

Astronomy

Sep. 07, 2019 Rise Set
Actual Time 6:38 AM CDT 7:30 PM CDT
Civil Twilight 6:10 AM CDT 7:58 PM CDT
Nautical Twilight 5:36 AM CDT 8:32 PM CDT
Astronomical Twilight 5:01 AM CDT 9:07 PM CDT
Moon 3:51 PM CDT (9/7) 12:26 AM CDT (9/7)
Length of Visible Light 13h 48m
Length of Day
12h 51m
Waxing Gibbous, 66% of the Moon is Illuminated
Sep 7
Waxing Gibbous
Sep 13
Full
Sep 21
Last Quarter
Sep 28
New
Oct 5
First Quarter

Hourly Weather History & Observations

Time (CDT) Temp. Dew Point Humidity Pressure Visibility Wind Dir Wind Speed Gust Speed Precip Events Conditions
12:52 AM 55.9 °F 55.0 °F 97% 30.09 in 10.0 mi Calm Calm - N/A   Clear
1:52 AM 57.0 °F 55.0 °F 93% 30.08 in 10.0 mi Calm Calm - N/A   Clear
2:52 AM 55.0 °F 53.1 °F 93% 30.08 in 10.0 mi Calm Calm - N/A   Clear
3:52 AM 53.1 °F 53.1 °F 100% 30.09 in 8.0 mi WNW 4.6 mph - N/A   Clear
4:52 AM 52.0 °F 52.0 °F 100% 30.09 in 8.0 mi NW 3.5 mph - N/A   Clear
5:52 AM 52.0 °F 52.0 °F 100% 30.09 in 8.0 mi West 3.5 mph - N/A   Clear
6:52 AM 52.0 °F 52.0 °F 100% 30.09 in 10.0 mi Calm Calm - N/A   Clear
7:52 AM 55.0 °F 55.0 °F 100% 30.10 in 10.0 mi Calm Calm - N/A   Clear
8:52 AM 62.1 °F 60.1 °F 93% 30.09 in 10.0 mi WSW 3.5 mph - N/A   Clear
9:52 AM 66.9 °F 61.0 °F 81% 30.07 in 10.0 mi SW 6.9 mph - N/A   Clear
10:52 AM 69.1 °F 60.1 °F 73% 30.06 in 10.0 mi SW 5.8 mph - N/A   Clear
11:52 AM 72.0 °F 61.0 °F 68% 30.07 in 10.0 mi WSW 5.8 mph - N/A   Clear
12:52 PM 73.9 °F 62.1 °F 66% 30.06 in 10.0 mi WSW 8.1 mph - N/A   Mostly Cloudy
1:52 PM 75.9 °F 61.0 °F 60% 30.04 in 10.0 mi Variable 4.6 mph - N/A   Scattered Clouds
2:52 PM 75.9 °F 60.1 °F 58% 30.03 in 10.0 mi Variable 4.6 mph - N/A   Partly Cloudy
3:52 PM 75.9 °F 60.1 °F 58% 30.01 in 10.0 mi WSW 4.6 mph - N/A   Scattered Clouds
4:52 PM 75.0 °F 60.1 °F 60% 30.01 in 10.0 mi West 3.5 mph - N/A   Partly Cloudy
5:52 PM 69.1 °F 66.9 °F 93% 30.04 in 8.0 mi West 3.5 mph - 0.03 in Rain Light Rain
6:52 PM 66.0 °F 66.0 °F 100% 30.03 in 4.0 mi Calm Calm - 0.09 in Rain Rain
7:52 PM 66.0 °F 64.0 °F 93% 30.01 in 10.0 mi ENE 10.4 mph - 0.05 in Rain Light Rain
8:52 PM 64.9 °F 63.0 °F 93% 30.03 in 10.0 mi NE 6.9 mph - 0.02 in   Mostly Cloudy
9:52 PM 63.0 °F 62.1 °F 97% 30.02 in 4.0 mi ENE 11.5 mph - 0.05 in Rain Rain
10:52 PM 62.1 °F 60.1 °F 93% 30.03 in 10.0 mi NE 8.1 mph - 0.08 in   Overcast
11:26 PM 62.1 °F 60.1 °F 93% 30.05 in 10.0 mi ENE 6.9 mph - N/A   Overcast
11:52 PM 62.1 °F 60.1 °F 93% 30.03 in 10.0 mi East 6.9 mph - N/A   Overcast